This is the latest recevied weather packets stored in our database for station/object SA7AHC. If no packets are shown the sender has not sent any weather packets the latest 10 day(s).
| Time | Temp. | Humidity | Pressure | Rain* | Wind** | Luminosity | Snow |
|---|---|---|---|---|---|---|---|
| 1788535049 | 12.78° C | 98% | 999.4 hPa | 0.25 mm | - | 63 W/m² | - |
| 1788534450 | 12.22° C | 98% | 999.6 hPa | 0.25 mm | - | 44 W/m² | - |
| 1788533849 | 12.22° C | 98% | 999.6 hPa | 0.25 mm | - | 42 W/m² | - |
| 1788533257 | 12.22° C | 97% | 999.7 hPa | 0.51 mm | - | 40 W/m² | - |
| 1788532644 | 12.22° C | 97% | 999.8 hPa | 0.51 mm | - | 32 W/m² | - |
| 1788532038 | 12.22° C | 97% | 999.8 hPa | 0.76 mm | - | 53 W/m² | - |
| 1788531433 | 12.22° C | 97% | 999.8 hPa | 0.76 mm | - | 56 W/m² | - |
| 1788530833 | 12.22° C | 97% | 1000.2 hPa | 0.76 mm | - | 63 W/m² | - |
| 1788530226 | 12.22° C | 97% | 1000.2 hPa | 0.76 mm | - | 42 W/m² | - |
| 1788529625 | 12.78° C | 97% | 1000.4 hPa | 0.76 mm | - | 30 W/m² | - |
| 1788529023 | 12.78° C | 97% | 1000.6 hPa | 0.51 mm | - | 53 W/m² | - |
| 1788528422 | 12.78° C | 97% | 1000.6 hPa | 0.76 mm | - | 46 W/m² | - |
| 1788527823 | 12.78° C | 97% | 1000.9 hPa | 0.51 mm | - | 42 W/m² | - |
| 1788527217 | 12.78° C | 97% | 1000.9 hPa | 0.76 mm | - | 46 W/m² | - |
| 1788526616 | 12.78° C | 97% | 1000.9 hPa | 0.51 mm | - | 54 W/m² | - |
| 1788526011 | 12.78° C | 96% | 1001.3 hPa | 0.51 mm | - | 54 W/m² | - |
| 1788525409 | 12.78° C | 96% | 1001.5 hPa | 0.76 mm | - | 58 W/m² | - |
| 1788524807 | 12.78° C | 96% | 1001.5 hPa | 0.76 mm | - | 60 W/m² | - |
| 1788524209 | 12.78° C | 95% | 1001.5 hPa | 0.76 mm | - | 60 W/m² | - |
| 1788523608 | 12.78° C | 95% | 1001.5 hPa | 0.51 mm | - | 58 W/m² | - |
| 1788523004 | 12.78° C | 94% | 1001.5 hPa | 0.51 mm | - | 58 W/m² | - |
| 1788522402 | 12.78° C | 94% | 1001.8 hPa | 0.51 mm | - | 70 W/m² | - |
| 1788521799 | 13.33° C | 92% | 1001.9 hPa | 0.25 mm | - | 70 W/m² | - |
| 1788521191 | 13.33° C | 90% | 1001.9 hPa | 0 mm | - | 69 W/m² | - |
| 1788520591 | 13.33° C | 90% | 1002.3 hPa | 0 mm | - | 77 W/m² | - |
* Rain latest hour (hover to see other rain measurements)
** Current wind speed in m/s (hover to see current wind gust speed)